H1 CPF 2 NER 2025 12 2 9 336 01 glonass137 H2 1705501 9137 42939 2025 12 2 0 0 0 2025 12 5 23 45 0 900 1 1 0 0 0 1 H9 10 0 61011 0.00000 0 -10017708.874 21158637.078 -10151054.293 10 0 61011 900.00000 0 -10552420.430 22091920.375 -7193645.880 10 0 61011 1800.00000 0 -10823309.315 22743951.596 -4096646.457 10 0 61011 2700.00000 0 -10866039.929 23072580.211 -920161.503 10 0 61011 3600.00000 0 -10724601.175 23045779.546 2274174.616 10 0 61011 4500.00000 0 -10449214.380 22643085.179 5424392.660 10 0 61011 5400.00000 0 -10093989.035 21856566.987 8469388.178 10 0 61011 6300.00000 0 -9714425.770 20691293.797 11350103.589 10 0 61011 7200.00000 0 -9364872.262 19165270.876 14010669.803 10 0 61011 8100.00000 0 -9096039.604 17308852.393 16399485.509 10 0 61011 9000.00000 0 -8952683.903 15163652.854 18470213.558 10 0 61011 9900.00000 0 -8971550.879 12781002.243 20182675.581 10 0 61011 10800.00000 0 -9179670.120 10220008.444 21503628.029 10 0 61011 11700.00000 0 -9593070.963 7545306.609 22407405.142 10 0 61011 12600.00000 0 -10215974.427 4824588.057 22876416.806 10 0 61011 13500.00000 0 -11040495.759 2126010.235 22901491.925 10 0 61011 14400.00000 0 -12046871.010 -484405.799 22482060.714 10 0 61011 15300.00000 0 -13204199.171 -2945283.385 21626172.148 10 0 61011 16200.00000 0 -14471669.998 -5202200.524 20350345.758 10 0 61011 17100.00000 0 -15800227.238 -7209707.276 18679259.898 10 0 61011 18000.00000 0 -17134598.652 -8932966.967 16645281.668 10 0 61011 18900.00000 0 -18415608.534 -10348953.413 14287846.654 10 0 61011 19800.00000 0 -19582676.264 -11447154.648 11652699.589 10 0 61011 20700.00000 0 -20576396.077 -12229754.123 8791009.987 10 0 61011 21600.00000 0 -21341089.402 -12711282.243 5758379.398 10 0 61011 22500.00000 0 -21827221.745 -12917753.398 2613759.449 10 0 61011 23400.00000 0 -21993581.464 -12885325.473 -581698.122 10 0 61011 24300.00000 0 -21809127.530 -12658539.168 -3765836.538 10 0 61011 25200.00000 0 -21254427.216 -12288212.420 -6876710.177 10 0 61011 26100.00000 0 -20322621.959 -11829080.014 -9853797.264 10 0 61011 27000.00000 0 -19019879.686 -11337279.349 -12639184.510 10 0 61011 27900.00000 0 -17365313.704 -10867789.830 -15178699.795 10 0 61011 28800.00000 0 -15390370.921 -10471935.249 -17422970.132 10 0 61011 29700.00000 0 -13137714.676 -10195055.607 -19328383.938 10 0 61011 30600.00000 0 -10659648.701 -10074447.417 -20857938.777 10 0 61011 31500.00000 0 -8016148.013 -10137659.847 -21981958.228 10 0 61011 32400.00000 0 -5272578.835 -10401218.800 -22678664.392 10 0 61011 33300.00000 0 -2497202.405 -10869832.688 -22934595.461 10 0 61011 34200.00000 0 241433.675 -11536113.269 -22744860.910 10 0 61011 35100.00000 0 2877108.550 -12380823.094 -22113229.967 10 0 61011 36000.00000 0 5348437.751 -13373639.017 -21052052.237 10 0 61011 36900.00000 0 7601175.978 -14474399.539 -19582012.396 10 0 61011 37800.00000 0 9590218.408 -15634783.517 -17731724.027 10 0 61011 38700.00000 0 11281218.634 -16800349.703 -15537170.548 10 0 61011 39600.00000 0 12651757.259 -17912851.479 -13041004.132 10 0 61011 40500.00000 0 13692014.011 -18912729.571 -10291716.137 10 0 61011 41400.00000 0 14404916.902 -19741678.078 -7342695.045 10 0 61011 42300.00000 0 14805763.748 -20345175.916 -4251190.137 10 0 61011 43200.00000 0 14921333.424 -20674877.276 -1077200.997 10 0 61011 44100.00000 0 14788525.499 -20690760.458 2117685.642 10 0 61011 45000.00000 0 14452586.616 -20362944.582 5271489.020 10 0 61011 45900.00000 0 13964999.175 -19673097.574 8323034.299 10 0 61011 46800.00000 0 13381121.932 -18615375.925 11213136.062 10 0 61011 47700.00000 0 12757682.376 -17196856.323 13885742.490 10 0 61011 48600.00000 0 12150226.765 -15437440.456 16289018.257 10 0 61011 49500.00000 0 11610635.282 -13369236.211 18376345.500 10 0 61011 50400.00000 0 11184806.891 -11035440.265 20107223.907 10 0 61011 51300.00000 0 10910611.202 -8488767.630 21448052.996 10 0 61011 52200.00000 0 10816193.406 -5789492.405 22372781.969 10 0 61011 53100.00000 0 10918703.579 -3003180.050 22863414.960 10 0 61011 54000.00000 0 11223503.943 -198204.099 22910362.186 10 0 61011 54900.00000 0 11723887.798 2556850.845 22512630.251 10 0 61011 55800.00000 0 12401322.603 5195793.187 21677847.706 10 0 61011 56700.00000 0 13226207.782 7657328.473 20422124.901 10 0 61011 57600.00000 0 14159116.415 9887360.497 18769750.128 10 0 61011 58500.00000 0 15152469.568 11840994.382 16752727.078 10 0 61011 59400.00000 0 16152573.718 13484158.813 14410161.634 10 0 61011 60300.00000 0 17101936.201 14794780.184 11787508.992 10 0 61011 61200.00000 0 17941761.494 15763459.912 8935694.988 10 0 61011 62100.00000 0 18614523.102 16393626.871 5910128.220 10 0 61011 63000.00000 0 19066502.189 16701158.941 2769621.962 10 0 61011 63900.00000 0 19250185.038 16713490.056 -424752.970 10 0 61011 64800.00000 0 19126417.146 16468241.017 -3610861.583 10 0 61011 65700.00000 0 18666221.799 16011432.620 -6726720.377 10 0 61011 66600.00000 0 17852205.095 15395357.499 -9711710.709 10 0 61011 67500.00000 0 16679486.956 14676201.643 -12507765.307 10 0 61011 68400.00000 0 15156117.753 13911517.166 -15060503.991 10 0 61011 69300.00000 0 13302962.096 13157654.110 -17320295.762 10 0 61011 70200.00000 0 11153053.937 12467260.636 -19243226.221 10 0 61011 71100.00000 0 8750449.446 11886957.738 -20791951.321 10 0 61011 72000.00000 0 6148625.299 11455286.952 -21936421.013 10 0 61011 72900.00000 0 3408488.953 11201017.670 -22654459.109 10 0 61011 73800.00000 0 596083.578 11141885.184 -22932188.662 10 0 61011 74700.00000 0 -2219917.109 11283812.254 -22764295.247 10 0 61011 75600.00000 0 -4970820.377 11620646.456 -22154123.658 10 0 61011 76500.00000 0 -7590524.457 12134423.847 -21113606.740 10 0 61011 77400.00000 0 -10018019.252 12796147.341 -19663028.140 10 0 61011 78300.00000 0 -12199674.861 13567046.642 -17830623.889 10 0 61011 79200.00000 0 -14091223.862 14400266.403 -15652030.637 10 0 61011 80100.00000 0 -15659356.112 15242911.332 -13169591.293 10 0 61011 81000.00000 0 -16882860.968 16038362.063 -10431531.448 10 0 61011 81900.00000 0 -17753270.706 16728764.162 -7491022.472 10 0 61011 82800.00000 0 -18274979.649 17257585.393 -4405149.387 10 0 61011 83700.00000 0 -18464835.426 17572133.425 -1233803.524 10 0 61011 84600.00000 0 -18351220.806 17625927.799 1961478.566 10 0 61011 85500.00000 0 -17972665.797 17380826.045 5118707.339 10 0 61012 0.00000 0 -17376049.401 16808814.226 8176640.183 10 0 61012 900.00000 0 -16614467.026 15893385.801 11075967.402 10 0 61012 1800.00000 0 -15744854.678 14630451.166 13760457.242 10 0 61012 2700.00000 0 -14825469.099 13028738.006 16178043.440 10 0 61012 3600.00000 0 -13913330.673 11109665.502 18281830.441 10 0 61012 4500.00000 0 -13061736.259 8906696.426 20030998.870 10 0 61012 5400.00000 0 -12317946.289 6464193.037 21391593.979 10 0 61012 6300.00000 0 -11721143.009 3835823.151 22337182.304 10 0 61012 7200.00000 0 -11300745.340 1082581.408 22849364.251 10 0 61012 8100.00000 0 -11075150.938 -1729493.500 22918132.958 10 0 61012 9000.00000 0 -11050958.235 -4531812.208 22542072.566 10 0 61012 9900.00000 0 -11222701.328 -7255836.482 21728391.847 10 0 61012 10800.00000 0 -11573109.183 -9835682.604 20492792.095 10 0 61012 11700.00000 0 -12073878.854 -12210619.271 18859171.120 10 0 61012 12600.00000 0 -12686930.816 -14327356.873 16859168.249 10 0 61012 13500.00000 0 -13366094.205 -16142033.468 14531558.206 10 0 61012 14400.00000 0 -14059151.545 -17621815.043 11921504.727 10 0 61012 15300.00000 0 -14710157.040 -18746043.418 9079687.654 10 0 61012 16200.00000 0 -15261930.630 -19506883.944 6061319.982 10 0 61012 17100.00000 0 -15658622.187 -19909446.028 2925073.722 10 0 61012 18000.00000 0 -15848236.832 -19971371.649 -268064.331 10 0 61012 18900.00000 0 -15785013.669 -19721909.636 -3455984.206 10 0 61012 19800.00000 0 -15431556.236 -19200515.261 -6576667.860 10 0 61012 20700.00000 0 -14760623.292 -18455035.008 -9569403.166 10 0 61012 21600.00000 0 -13756503.007 -17539553.987 -12375972.249 10 0 61012 22500.00000 0 -12415911.295 -16511997.858 -14941790.171 10 0 61012 23400.00000 0 -10748375.284 -15431591.400 -17216971.084 10 0 61012 24300.00000 0 -8776084.833 -14356281.796 -19157300.678 10 0 61012 25200.00000 0 -6533217.497 -13340235.891 -20725095.870 10 0 61012 26100.00000 0 -4064764.609 -12431517.255 -21889935.131 10 0 61012 27000.00000 0 -1424907.021 -11670040.886 -22629245.653 10 0 61012 27900.00000 0 1324992.164 -11085891.380 -22928736.514 10 0 61012 28800.00000 0 4118694.631 -10698074.748 -22782670.040 10 0 61012 29700.00000 0 6887598.167 -10513755.659 -22193966.772 10 0 61012 30600.00000 0 9563348.377 -10528011.328 -21174142.532 10 0 61012 31500.00000 0 12080442.910 -10724111.488 -19743079.267 10 0 61012 32400.00000 0 14378720.765 -11074311.885 -17928634.387 10 0 61012 33300.00000 0 16405634.095 -11541127.153 -15766096.307 10 0 61012 34200.00000 0 18118208.997 -12079028.883 -13297496.788 10 0 61012 35100.00000 0 19484614.738 -12636496.908 -10570793.354 10 0 61012 36000.00000 0 20485277.175 -13158337.010 -7638937.541 10 0 61012 36900.00000 0 21113491.055 -13588167.050 -4558847.018 10 0 61012 37800.00000 0 21375506.847 -13870966.471 -1390301.475 10 0 61012 38700.00000 0 21290089.601 -13955581.423 1805216.317 10 0 61012 39600.00000 0 20887569.430 -13797079.604 4965711.694 10 0 61012 40500.00000 0 20208424.395 -13358855.266 8029878.407 10 0 61012 41400.00000 0 19301456.064 -12614395.260 10938284.798 10 0 61012 42300.00000 0 18221634.942 -11548631.294 13634522.873 10 0 61012 43200.00000 0 17027706.599 -10158820.850 16066298.204 10 0 61012 44100.00000 0 15779659.142 -8454918.931 18186439.907 10 0 61012 45000.00000 0 14536158.234 -6459424.006 19953811.474 10 0 61012 45900.00000 0 13352057.026 -4206703.379 21334105.379 10 0 61012 46800.00000 0 12276085.006 -1741824.720 22300506.545 10 0 61012 47700.00000 0 11348812.226 881059.020 22834212.267 10 0 61012 48600.00000 0 10600973.795 3600705.659 22924798.799 10 0 61012 49500.00000 0 10052224.489 6351079.413 22570427.612 10 0 61012 50400.00000 0 9710375.505 9063852.158 21777887.110 10 0 61012 51300.00000 0 9571145.301 11671007.774 20562468.581 10 0 61012 52200.00000 0 9618435.108 14107442.487 18947678.087 10 0 61012 53100.00000 0 9825117.780 16313453.909 16964789.034 10 0 61012 54000.00000 0 10154307.108 18237015.775 14652243.176 10 0 61012 54900.00000 0 10561054.424 19835743.904 12054910.742 10 0 61012 55800.00000 0 10994401.127 21078471.396 9223223.340 10 0 61012 56700.00000 0 11399700.442 21946367.203 6212195.946 10 0 61012 57600.00000 0 11721110.021 22433551.158 3080356.761 10 0 61012 58500.00000 0 11904149.357 22547179.660 -111394.065 10 0 61012 59400.00000 0 11898212.953 22306998.536 -3300974.235 10 0 61012 60300.00000 0 11658931.779 21744382.241 -6426333.748 10 0 61012 61200.00000 0 11150281.823 20900900.374 -9426669.459 10 0 61012 62100.00000 0 10346349.228 19826472.615 -12243615.178 10 0 61012 63000.00000 0 9232676.091 18577190.695 -14822383.296 10 0 61012 63900.00000 0 7807128.883 17212900.027 -17112834.989 10 0 61012 64800.00000 0 6080251.757 15794643.704 -19070457.729 10 0 61012 65700.00000 0 4075088.906 14382077.086 -20657230.926 10 0 61012 66600.00000 0 1826482.587 13030962.146 -21842362.970 10 0 61012 67500.00000 0 -620124.467 11790846.998 -22602885.711 10 0 61012 68400.00000 0 -3210332.834 10703027.809 -22924095.381 10 0 61012 69300.00000 0 -5882808.287 9798878.112 -22799832.009 10 0 61012 70200.00000 0 -8571598.076 9098614.793 -22232592.576 10 0 61012 71100.00000 0 -11208645.772 8610551.480 -21233476.263 10 0 61012 72000.00000 0 -13726400.608 8330869.515 -19821963.322 10 0 61012 72900.00000 0 -16060413.512 8243914.944 -18025532.157 10 0 61012 73800.00000 0 -18151812.588 8323007.891 -15879122.168 10 0 61012 74700.00000 0 -19949555.808 8531729.268 -13424452.828 10 0 61012 75600.00000 0 -21412367.989 8825629.786 -10709212.139 10 0 61012 76500.00000 0 -22510282.205 9154288.549 -7786130.089 10 0 61012 77400.00000 0 -23225722.234 9463633.873 -4711955.057 10 0 61012 78300.00000 0 -23554081.764 9698427.974 -1546352.943 10 0 61012 79200.00000 0 -23503777.095 9804810.300 1649249.589 10 0 61012 80100.00000 0 -23095771.988 9732791.817 4812855.271 10 0 61012 81000.00000 0 -22362595.427 9438594.661 7883096.649 10 0 61012 81900.00000 0 -21346894.152 8886738.077 10800423.503 10 0 61012 82800.00000 0 -20099581.191 8051782.264 13508254.269 10 0 61012 83700.00000 0 -18677658.392 6919656.087 15954069.361 10 0 61012 84600.00000 0 -17141804.340 5488512.051 18090425.521 10 0 61012 85500.00000 0 -15553828.652 3769071.685 19875871.934 10 0 61013 0.00000 0 -13974099.125 1784445.838 21275750.788 10 0 61013 900.00000 0 -12459048.128 -430565.085 22262867.941 10 0 61013 1800.00000 0 -11058864.111 -2830660.578 22818019.361 10 0 61013 2700.00000 0 -9815461.381 -5361674.765 22930365.946 10 0 61013 3600.00000 0 -8760814.582 -7962587.435 22597647.586 10 0 61013 4500.00000 0 -7915726.222 -10567830.343 21826232.957 10 0 61013 5400.00000 0 -7289078.577 -13109794.149 20631003.537 10 0 61013 6300.00000 0 -6877601.090 -15521433.008 19035073.382 10 0 61013 7200.00000 0 -6666162.891 -17738859.355 17069349.286 10 0 61013 8100.00000 0 -6628578.122 -19703821.477 14771938.920 10 0 61013 9000.00000 0 -6728890.202 -21365960.922 12187417.524 10 0 61013 9900.00000 0 -6923080.860 -22684755.494 9365966.646 10 0 61013 10800.00000 0 -7161131.663 -23631066.486 6362401.134 10 0 61013 11700.00000 0 -7389350.579 -24188225.050 3235103.040 10 0 61013 12600.00000 0 -7552864.592 -24352611.874 44883.319 10 0 61013 13500.00000 0 -7598172.015 -24133705.644 -3146206.106 10 0 61013 14400.00000 0 -7475645.394 -23553598.254 -6276086.141 10 0 61013 15300.00000 0 -7141877.776 -22645997.332 -9283865.610 10 0 61013 16200.00000 0 -6561771.715 -21454758.532 -12111033.092 10 0 61013 17100.00000 0 -5710281.320 -20032009.960 -14702601.443 10 0 61013 18000.00000 0 -4573732.438 -18435948.379 -17008181.964 10 0 61013 18900.00000 0 -3150664.083 -16728400.625 -18982966.896 10 0 61013 19800.00000 0 -1452154.616 -14972253.357 -20588600.925 10 0 61013 20700.00000 0 498381.983 -13228859.512 -21793924.837 10 0 61013 21600.00000 0 2665921.977 -11555530.448 -22575577.249 10 0 61013 22500.00000 0 5005050.187 -10003218.722 -22918443.250 10 0 61013 23400.00000 0 7461620.445 -8614488.106 -22815941.852 10 0 61013 24300.00000 0 9974789.427 -7421854.982 -22270147.334 10 0 61013 25200.00000 0 12479339.690 -6446569.466 -21291742.688 10 0 61013 26100.00000 0 14908195.626 -5697886.010 -19899806.525 10 0 61013 27000.00000 0 17195028.211 -5172852.619 -18121437.870 10 0 61013 27900.00000 0 19276840.667 -4856626.079 -15991226.299 10 0 61013 28800.00000 0 21096427.965 -4723298.569 -13550577.709 10 0 61013 29700.00000 0 22604608.329 -4737199.676 -10846908.781 10 0 61013 30600.00000 0 23762134.346 -4854617.896 -7932725.642 10 0 61013 31500.00000 0 24541204.583 -5025868.194 -4864604.577 10 0 61013 32400.00000 0 24926513.246 -5197617.707 -1702094.493 10 0 61013 33300.00000 0 24915794.682 -5315370.837 1493437.572 10 0 61013 34200.00000 0 24519840.585 -5326008.378 4659995.435 10 0 61013 35100.00000 0 23761989.811 -5180273.054 7736154.158 10 0 61013 36000.00000 0 22677112.683 -4835096.178 10662248.584 10 0 61013 36900.00000 0 21310132.748 -4255666.858 13381527.001 10 0 61013 37800.00000 0 19714148.136 -3417156.037 15841247.789 10 0 61013 38700.00000 0 17948231.231 -2306022.116 17993698.097 10 0 61013 39600.00000 0 16074998.581 -920842.472 19797115.210 10 0 61013 40500.00000 0 14158052.340 727365.119 21216493.249 10 0 61013 41400.00000 0 12259399.630 2615345.855 22224260.098 10 0 61013 42300.00000 0 10436956.973 4708329.079 22800811.866 10 0 61013 43200.00000 0 8742243.269 6961238.699 22934894.835 10 0 61013 44100.00000 0 7218356.843 9320344.115 22623827.607 10 0 61013 45000.00000 0 5898320.371 11725284.497 21873558.978 10 0 61013 45900.00000 0 4803862.139 14111383.657 20698560.009 10 0 61013 46800.00000 0 3944684.114 16412160.528 19121551.731 10 0 61013 47700.00000 0 3318247.058 18561931.665 17173072.919 10 0 61013 48600.00000 0 2910081.372 20498398.064 14890895.411 10 0 61013 49500.00000 0 2694610.370 22165108.718 12319297.413 10 0 61013 50400.00000 0 2636451.079 23513698.008 9508208.110 10 0 61013 51300.00000 0 2692137.420 24505803.112 6512239.715 10 0 61013 52200.00000 0 2812192.552 25114580.660 3389625.450 10 0 61013 53100.00000 0 2943462.160 25325758.509 201084.295 10 0 61013 54000.00000 0 3031609.117 25138177.988 -2991365.043 10 0 61013 54900.00000 0 3023662.851 24563803.474 -6125617.179 10 0 61013 55800.00000 0 2870514.280 23627198.736 -9140695.618 10 0 61013 56700.00000 0 2529249.365 22364492.150 -11977946.257 10 0 61013 57600.00000 0 1965221.201 20821874.588 -14582184.765 10 0 61013 58500.00000 0 1153771.750 19053693.631 -16902774.707 10 0 61013 59400.00000 0 81529.297 17120224.680 -18894615.013 10 0 61013 60300.00000 0 -1252774.156 15085213.092 -20519017.363 10 0 61013 61200.00000 0 -2838000.907 13013290.822 -21744456.478 10 0 61013 62100.00000 0 -4650834.473 10967375.982 -22547179.091 10 0 61013 63000.00000 0 -6656526.598 9006164.080 -22911660.289 10 0 61013 63900.00000 0 -8810133.659 7181815.410 -22830898.951 10 0 61013 64800.00000 0 -11058191.334 5537934.525 -22306547.242 10 0 61013 65700.00000 0 -13340758.091 4107925.121 -21348872.186 10 0 61013 66600.00000 0 -15593742.737 2913787.767 -19976550.571 10 0 61013 67500.00000 0 -17751419.440 1965409.250 -18216301.458 10 0 61013 68400.00000 0 -19749025.861 1260371.626 -16102363.609 10 0 61013 69300.00000 0 -21525336.512 784287.380 -13675828.005 10 0 61013 70200.00000 0 -23025104.456 511645.059 -10983838.366 10 0 61013 71100.00000 0 -24201269.927 407128.437 -8078675.079 10 0 61013 72000.00000 0 -25016843.996 427352.464 -5016740.258 10 0 61013 72900.00000 0 -25446389.042 522941.832 -1857463.565 10 0 61013 73800.00000 0 -25477034.500 640863.661 1337849.998 10 0 61013 74700.00000 0 -25108985.756 726915.217 4507207.891 10 0 61013 75600.00000 0 -24355505.285 728261.086 7589130.393 10 0 61013 76500.00000 0 -23242367.099 595912.307 10523840.218 10 0 61013 77400.00000 0 -21806807.560 287042.411 13254418.381 10 0 61013 78300.00000 0 -20096016.563 -232957.710 15727904.087 10 0 61013 79200.00000 0 -18165232.132 -988773.165 17896317.661 10 0 61013 80100.00000 0 -16075517.811 -1993879.144 19717587.062 10 0 61013 81000.00000 0 -13891315.290 -3249730.553 21156360.542 10 0 61013 81900.00000 0 -11677873.759 -4745462.291 22184690.226 10 0 61013 82800.00000 0 -9498662.502 -6458113.962 22782573.789 10 0 61013 83700.00000 0 -7412873.723 -8353371.116 22938344.054 10 0 61013 84600.00000 0 -5473118.818 -10386793.624 22648899.091 10 0 61013 85500.00000 0 -3723413.219 -12505481.554 21919768.167 10 0 61014 0.00000 0 -2197533.203 -14650110.422 20765012.040 10 0 61014 900.00000 0 -917811.721 -16757253.531 19206958.125 10 0 61014 1800.00000 0 105575.026 -18761892.763 17275776.546 10 0 61014 2700.00000 0 874803.634 -20600017.686 15008902.274 10 0 61014 3600.00000 0 1404072.305 -22211202.010 12450315.117 10 0 61014 4500.00000 0 1718757.599 -23541050.810 9649690.268 10 0 61014 5400.00000 0 1854094.926 -24543415.658 6661435.406 10 0 61014 6300.00000 0 1853438.969 -25182284.237 3543632.821 10 0 61014 7200.00000 0 1766178.168 -25433264.459 356907.221 10 0 61014 8100.00000 0 1645392.295 -25284599.997 -2836758.349 10 0 61014 9000.00000 0 1545353.268 -24737673.863 -5975234.806 10 0 61014 9900.00000 0 1518976.186 -23806978.321 -8997463.044 10 0 61014 10800.00000 0 1615329.761 -22519552.106 -11844649.096 10 0 61014 11700.00000 0 1877312.826 -20913908.519 -14461414.311 10 0 61014 12600.00000 0 2339596.460 -19038499.605 -16796877.389 10 0 61014 13500.00000 0 3026919.853 -16949781.180 -18805646.740 10 0 61014 14400.00000 0 3952812.860 -14709960.212 -20448703.652 10 0 61014 15300.00000 0 5118799.961 -12384519.265 -21694159.143 10 0 61014 16200.00000 0 6514119.870 -10039621.763 -22517870.096 10 0 61014 17100.00000 0 8115973.169 -7739506.449 -22903903.255 10 0 61014 18000.00000 0 9890288.098 -5543979.556 -22844838.641 10 0 61014 18900.00000 0 11792972.879 -3506108.649 -22341907.171 10 0 61014 19800.00000 0 13771602.583 -1670213.369 -21404960.397 10 0 61014 20700.00000 0 15767470.416 -70235.658 -20052273.391 10 0 61014 21600.00000 0 17717918.081 1271444.019 -18310184.978 10 0 61014 22500.00000 0 19558848.283 2344696.670 -16212582.431 10 0 61014 23400.00000 0 21227314.716 3151813.844 -13800240.705 10 0 61014 24300.00000 0 22664081.707 3707150.441 -11120028.997 10 0 61014 25200.00000 0 23816046.795 4036257.870 -8223999.934 10 0 61014 26100.00000 0 24638425.205 4174545.477 -5168379.001 10 0 61014 27000.00000 0 25096605.059 4165527.847 -2012473.781 10 0 61014 27900.00000 0 25167595.863 4058732.919 1182475.871 10 0 61014 28800.00000 0 24841009.782 3907359.956 4354484.360 10 0 61014 29700.00000 0 24119534.732 3765786.888 7442020.536 10 0 61014 30600.00000 0 23018879.533 3687032.716 10385198.299 10 0 61014 31500.00000 0 21567193.410 3720282.460 13126934.562 10 0 61014 32400.00000 0 19803984.004 3908579.405 15614052.337 10 0 61014 33300.00000 0 17778578.869 4286782.256 17798307.854 10 0 61014 34200.00000 0 15548194.337 4879873.671 19637322.196 10 0 61014 35100.00000 0 13175691.770 5701691.860 21095399.897 10 0 61014 36000.00000 0 10727114.030 6754139.322 22144219.150 10 0 61014 36900.00000 0 8269103.967 8026902.873 22763380.668 10 0 61014 37800.00000 0 5866311.461 9497697.869 22940804.906 10 0 61014 38700.00000 0 3578895.916 11133027.823 22672970.056 10 0 61014 39600.00000 0 1460227.209 12889429.050 21964986.066 10 0 61014 40500.00000 0 -445120.134 14715149.883 20830502.868 10 0 61014 41400.00000 0 -2102996.818 16552195.666 19291453.956 10 0 61014 42300.00000 0 -3490865.418 18338655.276 17377639.453 10 0 61014 43200.00000 0 -4598494.848 20011212.806 15126155.893 10 0 61014 44100.00000 0 -5428134.154 21507739.916 12580682.790 10 0 61014 45000.00000 0 -5994158.805 22769860.400 9790639.161 10 0 61014 45900.00000 0 -6322204.916 23745379.273 6810225.750 10 0 61014 46800.00000 0 -6447828.394 24390473.871 3697371.324 10 0 61014 47700.00000 0 -6414746.272 24671554.146 512603.597 10 0 61014 48600.00000 0 -6272735.350 24566713.006 -2682132.860 10 0 61014 49500.00000 0 -6075277.991 24066704.762 -5824688.111 10 0 61014 50400.00000 0 -5877055.803 23175409.669 -8853923.262 10 0 61014 51300.00000 0 -5731398.515 21909764.350 -11710907.211 10 0 61014 52200.00000 0 -5687797.263 20299160.567 -14340069.574 10 0 61014 53100.00000 0 -5789588.682 18384337.381 -16690286.580 10 0 61014 54000.00000 0 -6071908.802 16215813.206 -18715878.301 10 0 61014 54900.00000 0 -6560004.109 13851923.537 -20377497.595 10 0 61014 55800.00000 0 -7267971.788 11356546.711 -21642893.488 10 0 61014 56700.00000 0 -8197982.812 8796612.867 -22487534.483 10 0 61014 57600.00000 0 -9340021.022 6239500.039 -22895080.166 10 0 61014 58500.00000 0 -10672149.508 3750425.783 -22857692.561 10 0 61014 59400.00000 0 -12161293.366 1389942.464 -22376181.850 10 0 61014 60300.00000 0 -13764506.263 -788360.283 -21459984.198 10 0 61014 61200.00000 0 -15430667.972 -2739851.333 -20126972.631 10 0 61014 62100.00000 0 -17102542.016 -4430470.315 -18403104.959 10 0 61014 63000.00000 0 -18719107.567 -5837890.690 -16321915.778 10 0 61014 63900.00000 0 -20218068.183 -6952186.783 -13923862.470 10 0 61014 64800.00000 0 -21538432.611 -7775978.686 -11255537.862 10 0 61014 65700.00000 0 -22623059.763 -8324050.672 -8368764.735 10 0 61014 66600.00000 0 -23421061.396 -8622460.787 -5319589.686 10 0 61014 67500.00000 0 -23889961.912 -8707180.482 -2167195.815 10 0 61014 68400.00000 0 -23997524.783 -8622322.800 1027244.704 10 0 61014 69300.00000 0 -23723169.026 -8418034.803 4201755.848 10 0 61014 70200.00000 0 -23058916.252 -8148143.889 7294757.762 10 0 61014 71100.00000 0 -22009828.473 -7867657.903 10246258.304 10 0 61014 72000.00000 0 -20593918.089 -7630224.890 12999013.078 10 0 61014 72900.00000 0 -18841533.487 -7485659.965 15499631.621 10 0 61014 73800.00000 0 -16794245.491 -7477643.735 17699608.645 10 0 61014 74700.00000 0 -14503280.588 -7641689.476 19556260.713 10 0 61014 75600.00000 0 -12027565.566 -8003464.881 21033550.690 10 0 61014 76500.00000 0 -9431464.160 -8577539.382 22102784.519 10 0 61014 77400.00000 0 -6782298.983 -9366610.247 22743167.246 10 0 61014 78300.00000 0 -4147760.736 -10361240.745 22942207.844 10 0 61014 79200.00000 0 -1593311.293 -11540122.403 22695965.133 10 0 61014 80100.00000 0 820312.425 -12870851.550 22009129.882 10 0 61014 81000.00000 0 3039391.048 -14311188.916 20894941.141 10 0 61014 81900.00000 0 5019217.365 -15810750.885 19374937.774 10 0 61014 82800.00000 0 6725710.620 -17313062.709 17478549.220 10 0 61014 83700.00000 0 8136583.856 -18757888.670 15242532.495 10 0 61014 84600.00000 0 9242016.102 -20083742.155 12710265.459 10 0 61014 85500.00000 0 10044801.758 -21230470.598 9930909.281 99